Location: Berville
(49.1893°N, 2.0748°E)
Time: 06:59:52
(UTC+00:00)

Cosmos 1709 Rocket - Pass Details

Date: 08 February 2023
Orbit: 947 x 1002 km, 82.9° (Epoch: 21 March)

Event Time Altitude Azimuth Distance (km) Brightness Sun altitude
Rises 18:06:48 0° 354° (N) 3,651 7.0 -11.4°
Reaches altitude 10° 18:09:27 10° 1° (N) 2,695 6.2 -11.8°
Maximum altitude 18:15:19 44° 73° (ENE) 1,293 4.2 -12.7°
Drops below altitude 10° 18:21:05 10° 145° (SE) 2,665 6.0 -13.7°
Sets 18:23:42 0° 151° (SSE) 3,607 6.8 -14.1°
